AG4OX Weather Reports


Display with metric or nautical units.
time (UTC)temp
F
wind
direction
speed
MPH
gust
MPH
rain 1hr
in
rain 24hr
in
rain mn
in
humidity
%
barometer
mb
20260506082006 63 82 0.0 0.0 0.00 0.00 0.00 73 1013.9
20260506081006 63 82 0.0 0.0 0.00 0.00 0.00 73 1013.8
20260506073006 64 82 0.0 0.0 0.00 0.00 0.00 72 1013.9
20260506072007 64 82 0.0 0.0 0.00 0.00 0.00 74 1014.0
20260506071006 64 82 0.0 0.0 0.00 0.00 0.00 74 1014.1
20260506062005 64 82 0.0 0.0 0.00 0.00 0.00 76 1014.3
20260506061006 64 82 0.0 0.0 0.00 0.00 0.00 76 1014.4
20260506051007 64 82 0.0 0.0 0.00 0.00 0.00 80 1014.7
20260506045006 65 82 0.0 0.0 0.00 0.00 0.00 80 1014.6
20260506043006 65 82 0.0 0.0 0.00 0.00 0.00 82 1014.6
20260506042006 65 82 0.0 0.0 0.00 0.00 0.00 81 1014.7
20260506040009 65 82 0.0 0.0 0.00 0.00 0.00 83 1014.8
20260506035006 66 82 0.0 0.0 0.00 0.00 0.00 83 1014.9
20260506034005 66 82 0.0 0.0 0.00 0.00 0.00 83 1015.0
20260506033006 66 82 0.0 0.0 0.00 0.00 0.00 84 1015.0
20260506032007 66 82 0.0 1.0 0.00 0.00 0.00 83 1015.0
20260506031007 66 82 0.0 1.0 0.00 0.00 0.00 84 1014.9
20260506030006 67 82 0.0 0.0 0.00 0.00 0.00 84 1014.8
20260506025006 67 82 0.0 0.0 0.00 0.00 0.00 84 1014.7
20260506024007 67 82 0.0 0.0 0.00 0.00 0.00 83 1014.7
20260506023007 68 82 0.0 0.0 0.00 0.00 0.00 83 1014.7
20260506022006 68 82 0.0 0.0 0.00 0.00 0.00 81 1014.6
20260506021005 69 82 0.0 0.0 0.00 0.00 0.00 80 1014.8
20260506020005 69 82 0.0 0.0 0.00 0.00 0.00 79 1014.7
20260506015006 69 82 0.0 1.0 0.00 0.00 0.00 79 1014.6
20260506014006 70 82 0.0 1.0 0.00 0.00 0.00 76 1014.4
20260506013006 70 82 1.0 1.0 0.00 0.00 0.00 75 1014.2
20260506012007 71 88 0.0 2.0 0.00 0.00 0.00 75 1013.9
20260506011006 71 88 1.0 2.0 0.00 0.00 0.00 73 1013.7
20260506010006 71 75 1.0 2.0 0.00 0.00 0.00 71 1013.6
20260506005006 72 81 1.0 3.0 0.00 0.00 0.00 70 1013.6
20260506004006 72 73 1.0 2.0 0.00 0.00 0.00 69 1013.5
20260506003006 73 47 1.0 2.0 0.00 0.00 0.00 69 1013.5
20260506002006 73 62 1.0 2.0 0.00 0.00 0.00 68 1013.4
20260506000005 74 67 1.0 3.0 0.00 0.00 0.00 68 1013.4
20260505235007 75 83 2.0 6.0 0.00 0.00 0.00 66 1013.5
20260505234007 75 91 3.0 7.0 0.00 0.00 0.00 66 1013.4
20260505232006 76 72 3.0 10.0 0.00 0.00 0.00 65 1013.5
20260505231007 76 72 5.0 13.0 0.00 0.00 0.00 64 1013.6
20260505230005 77 86 6.0 12.0 0.00 0.00 0.00 63 1013.6
20260505225006 78 78 4.0 13.0 0.00 0.00 0.00 61 1013.7
20260505224005 78 67 4.0 12.0 0.00 0.00 0.00 62 1013.8
20260505223006 78 63 5.0 12.0 0.00 0.00 0.00 59 1013.8
20260505221006 79 70 5.0 10.0 0.00 0.00 0.00 55 1013.6
20260505220005 79 75 4.0 10.0 0.00 0.00 0.00 59 1013.6
20260505215006 79 83 5.0 12.0 0.00 0.00 0.00 58 1013.6
20260505214005 79 65 3.0 10.0 0.00 0.00 0.00 59 1013.5
20260505213006 79 75 7.0 12.0 0.00 0.00 0.00 57 1013.5
20260505212006 79 71 3.0 12.0 0.00 0.00 0.00 54 1013.4
20260505210005 79 96 6.0 12.0 0.00 0.00 0.00 52 1013.3
20260505205007 80 88 8.0 12.0 0.00 0.00 0.00 52 1013.3
20260505204006 80 95 6.0 13.0 0.00 0.00 0.00 51 1013.3
20260505203006 80 113 6.0 13.0 0.00 0.00 0.00 53 1013.3
20260505202006 80 90 6.0 14.0 0.00 0.00 0.00 53 1013.5
20260505195006 80 101 6.0 17.0 0.00 0.00 0.00 52 1013.6
20260505194005 80 97 7.0 15.0 0.00 0.00 0.00 53 1013.9
20260505192007 81 85 6.0 15.0 0.00 0.00 0.00 57 1014.0
20260505191008 81 60 5.0 13.0 0.00 0.00 0.00 55 1014.1
20260505190005 81 85 6.0 16.0 0.00 0.00 0.00 54 1014.4
20260505185005 80 55 4.0 14.0 0.00 0.00 0.00 58 1014.4
20260505184005 80 88 6.0 13.0 0.00 0.00 0.00 56 1014.6
20260505183005 81 48 5.0 15.0 0.00 0.00 0.00 56 1014.6
20260505182007 80 69 5.0 14.0 0.00 0.00 0.00 56 1014.5
20260505181006 80 84 9.0 14.0 0.00 0.00 0.00 56 1014.4
20260505180006 81 85 9.0 13.0 0.00 0.00 0.00 54 1014.6
20260505175006 80 51 4.0 14.0 0.00 0.00 0.00 56 1014.6
20260505174006 80 95 5.0 14.0 0.00 0.00 0.00 54 1014.7
20260505173005 81 76 5.0 13.0 0.00 0.00 0.00 52 1014.8
20260505172005 80 80 6.0 14.0 0.00 0.00 0.00 54 1014.8
20260505171006 80 73 6.0 12.0 0.00 0.00 0.00 54 1014.9
20260505170007 80 90 9.0 14.0 0.00 0.00 0.00 52 1014.8
20260505165006 81 83 9.0 15.0 0.00 0.00 0.00 52 1014.8
20260505164005 80 38 7.0 15.0 0.00 0.00 0.00 53 1014.9
20260505162009 81 87 5.0 12.0 0.00 0.00 0.00 52 1015.1
20260505161007 80 99 7.0 15.0 0.00 0.00 0.00 55 1014.9
20260505153006 81 67 6.0 13.0 0.00 0.00 0.00 51 1014.9
20260505152007 80 36 4.0 13.0 0.00 0.00 0.00 51 1015.0
20260505151006 80 83 10.0 16.0 0.00 0.00 0.00 52 1014.9
20260505125007 76 65 6.0 15.0 0.00 0.10 0.00 68 1014.2
20260505124006 76 74 6.0 12.0 0.00 0.10 0.00 71 1014.1
20260505123007 75 89 3.0 6.0 0.00 0.10 0.00 75 1014.2
20260505122006 74 78 3.0 5.0 0.00 0.10 0.00 76 1014.6
20260505121005 73 79 1.0 3.0 0.00 0.10 0.00 82 1014.6
20260505120006 70 44 1.0 2.0 0.00 0.10 0.00 82 1014.2
20260505115006 67 47 0.0 0.0 0.00 0.10 0.00 68 1014.1
20260505112006 63 47 0.0 0.0 0.00 0.10 0.00 71 1013.5
20260505111006 62 47 0.0 0.0 0.00 0.10 0.00 72 1013.5
20260505102006 61 59 0.0 0.0 0.00 0.10 0.00 75 1013.1
20260505101005 61 59 0.0 0.0 0.00 0.10 0.00 77 1013.1
20260505095007 61 59 0.0 0.0 0.00 0.10 0.00 77 1012.6
20260505094007 62 59 0.0 0.0 0.00 0.10 0.00 76 1012.7
20260505093006 62 59 0.0 0.0 0.00 0.10 0.00 76 1012.8
20260505092006 62 59 0.0 0.0 0.00 0.10 0.00 78 1012.6
20260505091006 62 59 0.0 0.0 0.00 0.10 0.00 77 1012.8
20260505090005 62 59 0.0 0.0 0.00 0.10 0.00 79 1012.6
20260505084006 62 59 0.0 0.0 0.00 0.10 0.00 78 1012.4